TimeEDT,TemperatureF,Dew PointF,Humidity,Sea Level PressureIn,VisibilityMPH,Wind Direction,Wind SpeedMPH,Gust SpeedMPH,PrecipitationIn,Events,Conditions,WindDirDegrees,DateUTC
12:53 AM,70.0,66.9,90,29.93,10.0,Calm,Calm,-,N/A,,Clear,0,2013-08-28 04:53:00
1:53 AM,70.0,66.9,90,29.91,10.0,Calm,Calm,-,N/A,,Clear,0,2013-08-28 05:53:00
2:53 AM,69.1,66.9,93,29.90,10.0,Calm,Calm,-,N/A,,Partly Cloudy,0,2013-08-28 06:53:00
3:53 AM,69.1,66.0,90,29.89,10.0,Calm,Calm,-,N/A,,Clear,0,2013-08-28 07:53:00
4:53 AM,68.0,66.0,93,29.89,10.0,Calm,Calm,-,N/A,,Clear,0,2013-08-28 08:53:00
5:53 AM,68.0,64.9,90,29.90,10.0,Calm,Calm,-,N/A,,Clear,0,2013-08-28 09:53:00
6:53 AM,66.9,64.9,93,29.91,9.0,Calm,Calm,-,N/A,,Clear,0,2013-08-28 10:53:00
7:53 AM,71.1,66.9,87,29.91,10.0,Calm,Calm,-,N/A,,Clear,0,2013-08-28 11:53:00
8:53 AM,75.9,68.0,76,29.91,10.0,NNE,3.5,-,N/A,,Clear,20,2013-08-28 12:53:00
9:53 AM,80.1,69.1,69,29.90,10.0,Variable,4.6,-,N/A,,Clear,0,2013-08-28 13:53:00
10:53 AM,82.0,68.0,62,29.90,10.0,Calm,Calm,-,N/A,,Mostly Cloudy,0,2013-08-28 14:53:00
11:48 AM,75.2,66.2,73,29.89,1.0,Variable,6.9,23.0,0.10,Rain,Heavy Rain,0,2013-08-28 15:48:00
11:53 AM,72.0,68.0,87,29.91,0.8,SW,6.9,-,0.19,Rain,Rain,230,2013-08-28 15:53:00
11:59 AM,71.6,68.0,88,29.89,0.2,West,6.9,-,0.31,Fog-Rain,Heavy Rain,260,2013-08-28 15:59:00
12:10 PM,71.6,69.8,94,29.88,0.5,South,5.8,-,0.46,Fog-Rain,Heavy Rain,180,2013-08-28 16:10:00
12:17 PM,71.6,69.8,94,29.88,2.0,Calm,Calm,-,0.47,Rain,Rain,0,2013-08-28 16:17:00
12:27 PM,73.4,69.8,88,29.87,3.0,SSE,4.6,-,0.49,Rain,Light Rain,160,2013-08-28 16:27:00
12:38 PM,73.4,69.8,88,29.87,1.8,Calm,Calm,-,0.54,Rain,Heavy Rain,0,2013-08-28 16:38:00
12:53 PM,72.0,69.1,91,29.90,1.5,Calm,Calm,-,0.63,Rain,Rain,0,2013-08-28 16:53:00
1:02 PM,71.6,69.8,94,29.88,2.0,NE,3.5,-,0.04,Rain,Rain,50,2013-08-28 17:02:00
1:22 PM,73.4,69.8,88,29.89,0.8,Calm,Calm,-,0.14,Rain,Heavy Rain,0,2013-08-28 17:22:00
1:32 PM,71.6,69.8,94,29.89,0.2,WSW,4.6,-,0.65,Fog-Rain,Heavy Rain,250,2013-08-28 17:32:00
1:34 PM,71.6,69.8,94,29.89,0.2,SW,5.8,-,0.74,Fog-Rain,Heavy Rain,220,2013-08-28 17:34:00
1:42 PM,71.6,68.0,88,29.89,0.2,Variable,4.6,-,1.08,Fog-Rain,Heavy Rain,0,2013-08-28 17:42:00
1:53 PM,71.1,68.0,90,29.91,0.8,SSE,4.6,-,1.22,Rain,Heavy Rain,160,2013-08-28 17:53:00
1:58 PM,71.6,66.2,83,29.89,2.0,SE,3.5,-,0.01,Rain,Rain,140,2013-08-28 17:58:00
2:07 PM,71.6,68.0,88,29.89,4.0,SE,4.6,-,0.02,Rain,Light Rain,130,2013-08-28 18:07:00
2:29 PM,71.6,68.0,88,29.89,2.5,West,3.5,-,0.05,Rain,Light Rain,280,2013-08-28 18:29:00
2:48 PM,71.6,69.8,94,29.89,3.0,Calm,Calm,-,0.08,Rain,Light Rain,0,2013-08-28 18:48:00
2:53 PM,71.1,69.1,93,29.90,2.5,Calm,Calm,-,0.09,Rain,Rain,0,2013-08-28 18:53:00
3:15 PM,71.6,69.8,94,29.89,3.0,Calm,Calm,-,0.02,Rain,Light Rain,0,2013-08-28 19:15:00
3:25 PM,71.6,69.8,94,29.88,2.5,Calm,Calm,-,0.04,Rain,Light Rain,0,2013-08-28 19:25:00
3:36 PM,71.6,69.8,94,29.88,3.0,Calm,Calm,-,0.05,Rain,Light Rain,0,2013-08-28 19:36:00
3:53 PM,73.0,71.1,93,29.89,5.0,Calm,Calm,-,0.05,Rain,Light Rain,0,2013-08-28 19:53:00
4:19 PM,73.4,71.6,94,29.87,4.0,Calm,Calm,-,0.00,Rain,Light Rain,0,2013-08-28 20:19:00
4:53 PM,75.0,72.0,90,29.89,3.0,ENE,3.5,-,0.00,,Overcast,70,2013-08-28 20:53:00
5:25 PM,75.2,71.6,89,29.87,5.0,Calm,Calm,-,N/A,,Scattered Clouds,0,2013-08-28 21:25:00
5:53 PM,75.0,71.1,87,29.88,5.0,Calm,Calm,-,N/A,,Partly Cloudy,0,2013-08-28 21:53:00
6:53 PM,75.0,71.1,87,29.88,4.0,Calm,Calm,-,N/A,,Clear,0,2013-08-28 22:53:00
7:23 PM,73.4,71.6,94,29.87,2.0,Calm,Calm,-,N/A,,Clear,0,2013-08-28 23:23:00
7:31 PM,73.4,71.6,94,29.87,1.5,Calm,Calm,-,N/A,,Clear,0,2013-08-28 23:31:00
7:43 PM,73.4,71.6,94,29.87,3.0,Calm,Calm,-,N/A,,Scattered Clouds,0,2013-08-28 23:43:00
7:53 PM,73.9,72.0,93,29.88,4.0,Calm,Calm,-,N/A,,Mostly Cloudy,0,2013-08-28 23:53:00
8:53 PM,73.0,71.1,93,29.90,3.0,ENE,4.6,-,N/A,,Partly Cloudy,70,2013-08-29 00:53:00
9:12 PM,73.4,71.6,94,29.89,3.0,ENE,5.8,-,N/A,,Scattered Clouds,60,2013-08-29 01:12:00
9:28 PM,73.4,71.6,94,29.90,3.0,ENE,5.8,-,N/A,,Mostly Cloudy,70,2013-08-29 01:28:00
9:44 PM,73.4,69.8,88,29.91,4.0,ENE,5.8,-,N/A,,Mostly Cloudy,70,2013-08-29 01:44:00
9:51 PM,73.4,69.8,88,29.91,4.0,NE,4.6,-,N/A,,Scattered Clouds,50,2013-08-29 01:51:00
9:53 PM,73.0,70.0,90,29.92,4.0,ENE,3.5,-,N/A,,Scattered Clouds,60,2013-08-29 01:53:00
10:53 PM,72.0,70.0,93,29.92,4.0,Calm,Calm,-,N/A,,Clear,0,2013-08-29 02:53:00
11:53 PM,70.0,69.1,97,29.92,2.0,Calm,Calm,-,N/A,,Partly Cloudy,0,2013-08-29 03:53:00